TimePDT,TemperatureF,Dew PointF,Humidity,Sea Level PressureIn,VisibilityMPH,Wind Direction,Wind SpeedMPH,Gust SpeedMPH,PrecipitationIn,Events,Conditions,WindDirDegrees,DateUTC
12:15 AM,59.0,55.4,88,30.21,10.0,Calm,Calm,-,N/A,,Clear,0,2012-10-14 07:15:00
12:30 AM,59.0,55.4,88,30.21,10.0,NW,3.5,-,N/A,,Clear,310,2012-10-14 07:30:00
12:55 AM,59.0,55.4,88,30.21,10.0,Calm,Calm,-,N/A,,Clear,0,2012-10-14 07:55:00
1:10 AM,59.0,55.4,88,30.21,10.0,NW,3.5,-,N/A,,Clear,320,2012-10-14 08:10:00
1:30 AM,57.2,55.4,94,30.21,10.0,NNW,4.6,-,N/A,,Clear,340,2012-10-14 08:30:00
1:55 AM,57.2,55.4,94,30.22,10.0,Calm,Calm,-,N/A,,Mostly Cloudy,0,2012-10-14 08:55:00
2:10 AM,57.2,55.4,94,30.22,9.0,NW,3.5,-,N/A,,Overcast,310,2012-10-14 09:10:00
2:35 AM,57.2,55.4,94,30.22,7.0,North,3.5,-,N/A,,Overcast,360,2012-10-14 09:35:00
2:55 AM,57.2,55.4,94,30.21,5.0,Calm,Calm,-,N/A,,Overcast,0,2012-10-14 09:55:00
3:10 AM,57.2,55.4,94,30.21,4.0,SSW,3.5,-,N/A,,Overcast,200,2012-10-14 10:10:00
3:30 AM,55.4,55.4,100,30.20,1.5,SSE,4.6,-,N/A,,Overcast,160,2012-10-14 10:30:00
3:55 AM,55.4,55.4,100,30.19,7.0,Calm,Calm,-,N/A,,Overcast,0,2012-10-14 10:55:00
4:10 AM,55.4,55.4,100,30.18,10.0,Calm,Calm,-,N/A,,Overcast,0,2012-10-14 11:10:00
4:35 AM,57.2,55.4,94,30.19,10.0,Calm,Calm,-,N/A,,Overcast,0,2012-10-14 11:35:00
4:50 AM,57.2,55.4,94,30.19,10.0,Calm,Calm,-,N/A,,Overcast,0,2012-10-14 11:50:00
5:10 AM,57.2,55.4,94,30.19,10.0,WNW,3.5,-,N/A,,Overcast,300,2012-10-14 12:10:00
5:35 AM,57.2,55.4,94,30.20,10.0,Calm,Calm,-,N/A,,Overcast,0,2012-10-14 12:35:00
5:50 AM,57.2,55.4,94,30.21,7.0,Calm,Calm,-,N/A,,Overcast,0,2012-10-14 12:50:00
6:10 AM,57.2,55.4,94,30.21,8.0,Calm,Calm,-,N/A,,Overcast,0,2012-10-14 13:10:00
6:35 AM,57.2,57.2,100,30.21,4.0,Calm,Calm,-,N/A,,Overcast,0,2012-10-14 13:35:00
6:49 AM,57.2,57.2,100,30.21,2.5,Calm,Calm,-,N/A,,Overcast,0,2012-10-14 13:49:00
6:50 AM,57.2,57.2,100,30.21,5.0,Calm,Calm,-,N/A,,Overcast,0,2012-10-14 13:50:00
7:47 AM,57.2,57.2,100,30.22,2.0,SE,4.6,-,N/A,,Overcast,130,2012-10-14 14:47:00
8:49 AM,57.2,57.2,100,30.23,1.0,WSW,3.5,-,N/A,,Overcast,240,2012-10-14 15:49:00
9:47 AM,57.2,57.2,100,30.23,2.5,Calm,Calm,-,N/A,,Overcast,0,2012-10-14 16:47:00
10:00 AM,59.0,57.2,94,30.23,3.0,Calm,Calm,-,N/A,,Overcast,0,2012-10-14 17:00:00
10:47 AM,59.0,57.2,94,30.23,7.0,NNW,4.6,-,N/A,,Overcast,330,2012-10-14 17:47:00
11:50 AM,60.8,57.2,88,30.22,10.0,North,3.5,-,N/A,,Scattered Clouds,10,2012-10-14 18:50:00
12:50 PM,62.6,57.2,82,30.20,10.0,NNE,5.8,-,N/A,,Partly Cloudy,20,2012-10-14 19:50:00
1:50 PM,64.4,57.2,77,30.16,10.0,NNE,6.9,-,N/A,,Clear,30,2012-10-14 20:50:00
2:54 PM,71.6,57.2,60,30.13,10.0,North,6.9,-,N/A,,Clear,360,2012-10-14 21:54:00
3:47 PM,73.4,57.2,57,30.12,10.0,NNW,9.2,-,N/A,,Partly Cloudy,340,2012-10-14 22:47:00
4:47 PM,75.2,57.2,53,30.10,10.0,NNW,6.9,-,N/A,,Partly Cloudy,330,2012-10-14 23:47:00
5:50 PM,73.4,57.2,57,30.09,10.0,NW,8.1,-,N/A,,Partly Cloudy,310,2012-10-15 00:50:00
6:47 PM,68.0,55.4,64,30.09,10.0,WNW,5.8,-,N/A,,Scattered Clouds,290,2012-10-15 01:47:00
7:47 PM,66.2,55.4,68,30.09,10.0,WNW,6.9,-,N/A,,Clear,290,2012-10-15 02:47:00
8:47 PM,62.6,57.2,82,30.11,10.0,NNW,6.9,-,N/A,,Clear,330,2012-10-15 03:47:00
9:15 PM,62.6,57.2,82,30.11,10.0,NNW,5.8,-,N/A,,Clear,330,2012-10-15 04:15:00
9:30 PM,62.6,55.4,77,30.11,10.0,NW,6.9,-,N/A,,Clear,310,2012-10-15 04:30:00
9:55 PM,62.6,55.4,77,30.12,10.0,West,4.6,-,N/A,,Clear,280,2012-10-15 04:55:00
10:15 PM,62.6,55.4,77,30.12,10.0,WNW,4.6,-,N/A,,Clear,290,2012-10-15 05:15:00
10:30 PM,62.6,55.4,77,30.12,10.0,West,4.6,-,N/A,,Clear,270,2012-10-15 05:30:00
10:55 PM,62.6,55.4,77,30.12,10.0,Calm,Calm,-,N/A,,Clear,0,2012-10-15 05:55:00
11:15 PM,59.0,55.4,88,30.10,10.0,SE,6.9,-,N/A,,Clear,140,2012-10-15 06:15:00
11:30 PM,59.0,55.4,88,30.10,10.0,SSE,4.6,-,N/A,,Clear,150,2012-10-15 06:30:00
11:55 PM,59.0,55.4,88,30.10,10.0,South,4.6,-,N/A,,Clear,170,2012-10-15 06:55:00